This demonstration page uses our WeatherBlox Daily Observations layout. Learn more.

Left ArrowRight Arrow

Hourly Observations for April 19, 2018

Temp ( °F °C ) Dew Point ( °F °C ) Humidity (%) Winds ( mph kmh ) Pressure ( in mb ) Visibility ( mi km ) Precip ( " mm )
12:59 am 00:59 Clear 60 15.6 51 10.6 72 72 S 13 20 29.65 1004 10 16 0.00 0.00
1:59 am 01:59 Clear 62 16.7 51 10.6 67 67 S 13 20 29.62 1003 10 16 0.00 0.00
2:59 am 02:59 Clear 64 17.8 49 9.4 58 58 S 13 20 29.61 1003 10 16 0.00 0.00
3:59 am 03:59 Clear 64 17.8 48 8.9 56 56 SSW 12 19 29.62 1003 10 16 0.00 0.00
4:59 am 04:59 Clear 64 17.8 48 8.9 56 56 SSW 12 19 29.61 1003 10 16 0.00 0.00
5:59 am 05:59 Mostly Clear 65 18.3 48 8.9 54 54 SW 12 19 29.62 1003 10 16 0.00 0.00
6:59 am 06:59 Partly Cloudy 63 17.2 49 9.4 60 60 NW 15 24 29.68 1005 10 16 0.00 0.00
7:59 am 07:59 Partly Cloudy 60 15.6 47 8.3 62 62 N 8 13 29.72 1007 10 16 0.00 0.00
8:59 am 08:59 Partly Cloudy 58 14.4 48 8.9 70 70 NNE 8 13 29.74 1007 10 16 0.00 0.00
9:59 am 09:59 Partly Cloudy 59 15 48 8.9 67 67 NNE 9 15 29.76 1008 10 16 0.00 0.00
10:59 am 10:59 Partly Cloudy 60 15.6 48 8.9 65 65 N 6 9 29.77 1008 10 16 0.00 0.00
11:59 am 11:59 Partly Cloudy 64 17.8 48 8.9 56 56 N 6 9 29.76 1008 10 16 0.00 0.00
12:59 pm 12:59 Partly Cloudy 64 17.8 50 10 60 60 NNW 7 11 29.78 1008 10 16 0.00 0.00
1:59 pm 13:59 Partly Cloudy 68 20 49 9.4 51 51 NW 9 15 29.78 1008 10 16 0.00 0.00
2:59 pm 14:59 Mostly Cloudy 69 20.6 50 10 51 51 NNE 6 9 29.80 1009 10 16 0.00 0.00
3:52 pm 15:52 Mostly Cloudy 56 13.3 47 8.3 72 72 N 17 28 29.85 1011 9 14 0.00 0.00
3:59 pm 15:59 Mostly Cloudy 55 12.8 46 7.8 72 72 N 16 26 29.87 1012 10 16 0.00 0.00
4:59 pm 16:59 Mostly Cloudy 57 13.9 44 6.7 62 62 NE 13 20 29.89 1012 10 16 0.00 0.00
5:59 pm 17:59 Partly Cloudy 57 13.9 44 6.7 62 62 NE 8 13 29.93 1014 10 16 0.00 0.00
6:59 pm 18:59 Mostly Sunny 61 16.1 31 -0.6 32 32 WNW 21 33 29.96 1014 10 16 0.00 0.00
7:59 pm 19:59 Clear 58 14.4 35 1.7 42 42 NNW 20 31 30.01 1016 10 16 0.00 0.00
8:59 pm 20:59 Clear 55 12.8 30 -1.1 38 38 NNW 21 33 30.07 1018 10 16 0.00 0.00
9:59 pm 21:59 Clear 50 10 31 -0.6 48 48 N 24 39 30.13 1020 10 16 0.00 0.00
10:59 pm 22:59 Clear 48 8.9 28 -2.2 46 46 NNW 28 44 30.16 1021 10 16 0.00 0.00
11:59 pm 23:59 Clear 47 8.3 26 -3.3 44 44 NNW 23 37 30.18 1022 10 16 0.00 0.00

Powered by AerisWeather